Tracking 30918 objects as of 2-Jul-2025
HD Live streaming from Space Station
objects crossing your sky now

COSMOS 2251 DEB

Track COSMOS 2251 DEB now!
10-day predictions


NORAD ID: 34672
Int'l Code: 1993-036XS
Perigee: 760.6 km
Apogee: 796.4 km
Inclination: 74.0 °
Period: 100.3 minutes
Semi major axis: 7149 km
RCS: 0.0123 m2 (small)
Launch date: June 16, 1993
Source: Commonwealth of Independent States (former USSR) (CIS)
Launch site: PLESETSK MISSILE AND SPACE COMPLEX (PKMTR)

Note: This is SATELLITE DEBRIS
Your satellite tracking list
Your tracking list is empty




NASA's NSSDC Master Catalog

Two Line Element Set (TLE):
1 34672U 93036XS  25182.44751642  .00000338  00000-0  12469-3 0  9993
2 34672  74.0329 247.3570 0025017   0.4814  14.2484 14.36121465628191
Source of the keplerian elements: AFSPC